Location: Brienzwiler
(46.7508°N, 8.1014°E)
Time: 17:06:43
(UTC+00:00)

ATLAS 2AS CENTAUR R/B - Pass Details

Date: 05 July 2020
Orbit: 930 x 1282 km, 63.7° (Epoch: 19 July)

Event Time Altitude Azimuth Distance (km) Brightness Sun altitude
Rises 22:32:16 0° 320° (NW) 4,176 6.9 -19.3°
Reaches altitude 10° 22:35:08 10° 319° (NW) 3,168 6.1 -19.4°
Maximum altitude 22:42:42 75° 236° (SW) 1,181 2.8 -19.7°
Enters shadow 22:46:18 32° 157° (SSE) 1,804 3.3 -19.8°
